Location: Arcey
(47.2760°N, 4.8270°E)
Time: 09:37:38
(UTC+00:00)

Daily predictions for brighter satellites

Satellite Brightness Start Highest point End
(mag) Time Altitude Azimuth Time Altitude Azimuth Time Altitude Azimuth
STARLINK-1072 3.8 20:00:11 10° WNW 20:04:17 65° SW 20:08:24 10° SE
STARLINK-1099 4.3 20:02:26 10° WNW 20:06:30 52° NNE 20:10:34 10° E
MOS 1 Rocket 3.7 20:02:13 10° N 20:06:32 61° WNW 20:10:45 10° SSW
Cosmos 1461 3.5 20:03:09 10° S 20:06:56 36° ESE 20:10:54 10° NE
Cosmos 1544 4.2 20:03:46 10° NNW 20:07:15 44° W 20:10:41 10° SSW
STARLINK-1225 3.6 20:03:09 10° WSW 20:07:18 84° SSE 20:11:27 10° ENE
Iridium 51 4.3 20:04:47 10° S 20:08:36 75° W 20:12:12 10° N
STARLINK-1096 3.9 20:05:10 10° WNW 20:09:15 60° SW 20:13:20 10° SE
Okean 3 3.5 20:05:07 10° S 20:09:24 77° E 20:13:43 10° NNE
Cosmos 2369 Rocket 4.1 20:09:11 10° ESE 20:10:38 11° E 20:12:06 10° E
STARLINK-1104 4.2 20:07:24 10° WNW 20:11:29 54° NNE 20:15:34 10° E
STARLINK-1230 3.6 20:08:07 10° WSW 20:12:16 89° SSE 20:16:26 10° ENE
STARLINK-1079 4.0 20:10:10 10° WNW 20:14:13 56° SW 20:18:16 10° SE
STARLINK-1144 4.1 20:12:24 10° WNW 20:16:30 57° NNE 20:20:35 10° E
SL-4 R/B 2.7 20:14:21 10° NW 20:17:07 31° WSW 20:19:42 10° S
STARLINK-1243 3.7 20:13:06 10° WSW 20:17:15 86° NNW 20:21:26 10° ENE
Cosmos 2221 Rocket 3.7 20:12:46 10° S 20:17:17 86° E 20:21:53 10° N
STARLINK-1116 4.1 20:15:09 10° WNW 20:19:11 51° SW 20:23:12 10° SE
SPOT 5 4.3 20:14:49 10° ESE 20:19:19 30° ENE 20:23:54 10° N
NOSS 8 (F) 4.2 20:17:15 10° SSW 20:20:28 56° SE 20:23:27 10° NE
Meteor 1-13 Rocket 4.3 20:15:21 10° S 20:20:55 68° E 20:26:39 10° NNE
STARLINK-1103 4.1 20:17:22 10° WNW 20:21:29 60° NNE 20:25:35 10° ESE
STARLINK-1236 3.8 20:18:04 10° WSW 20:22:13 81° NNW 20:26:23 10° ENE
ERS-1 Rocket 3.9 20:19:54 10° SE 20:24:26 35° ENE 20:28:59 10° N
STARLINK-1101 4.0 20:22:20 10° WNW 20:26:28 63° NNE 20:30:35 10° ESE
STARLINK-1094 4.3 20:25:09 10° WNW 20:29:07 44° SW 20:32:47 12° SSE
USA 245 2.7 20:27:56 11° SSE 20:30:42 52° ENE 20:33:11 10° N
USA 238 DEB 4.5 20:23:56 10° NW 20:30:52 50° NE 20:38:03 10° ESE
USA 238 4.5 20:24:02 10° NW 20:30:58 50° NE 20:38:09 10° ESE
STARLINK-1102 3.9 20:27:20 10° WNW 20:31:29 66° NNE 20:35:36 10° ESE
STARLINK-1269 3.9 20:28:04 10° WSW 20:32:12 72° NNW 20:36:21 10° ENE
Cosmos 2278 Rocket 3.1 20:27:45 10° SW 20:33:19 54° WNW 20:38:54 10° NNE
TSX-5 4.4 20:27:53 10° SSW 20:33:31 63° ESE 20:37:51 10° NE
Okean 1 Rocket 3.6 20:29:43 10° N 20:34:02 46° ENE 20:37:54 12° SSE
STARLINK-1117 4.4 20:30:10 10° WNW 20:34:04 41° SW 20:37:34 12° SSE
Resurs 01 Rocket 2.4 20:29:53 10° S 20:34:13 53° W 20:38:36 10° NNW
Cosmos 1741 Rocket 4.0 20:29:22 10° NNW 20:34:36 86° WSW 20:39:48 10° SSE
GPS 2-04 Rocket1 4.5 20:33:06 10° SSW 20:34:43 13° S 20:35:57 11° SSE
Okean 2 Rocket 3.6 20:30:25 10° NNW 20:34:46 58° W 20:39:04 10° S
Nadezhda 4 Rocket 4.3 20:29:21 10° SSE 20:35:09 46° E 20:40:57 10° NNE
STARLINK-1111 3.8 20:32:18 10° WNW 20:36:26 70° NNE 20:40:34 10° ESE
STARLINK-1200 4.0 20:33:02 10° WSW 20:37:10 69° NNW 20:41:19 10° ENE
MetOp-B 4.2 20:32:43 10° SSE 20:38:04 83° WSW 20:43:28 10° NNW
SL-8 R/B 3.7 20:36:37 10° WNW 20:41:27 83° SSW 20:46:16 10° ESE
STARLINK-1073 3.8 20:37:17 10° WNW 20:41:27 74° NNE 20:45:22 11° ESE
STARLINK-1192 4.1 20:38:03 10° WSW 20:42:11 65° NNW 20:46:19 10° ENE
Cosmos 2279 Rocket 4.2 20:36:34 10° NNW 20:42:48 74° W 20:48:59 10° S
Cosmos 1850 Rocket 4.3 20:38:50 10° NNW 20:44:10 70° WSW 20:49:25 10° S
Cosmos 371 Rocket 3.9 20:40:26 10° SSW 20:45:14 62° WNW 20:50:06 10° NNE
ATLAS 3B CENTAUR R/B 4.3 20:35:21 10° SW 20:45:48 23° S 20:50:57 13° SE
STARLINK-1121 3.7 20:42:15 10° WNW 20:46:25 78° NNE 20:50:08 13° ESE
SL-4 R/B 3.7 20:43:24 10° S 20:46:43 19° SE 20:50:06 10° E
STARLINK-1244 4.2 20:43:03 10° WSW 20:47:09 62° NNW 20:51:17 10° ENE
Cosmos 1110 Rocket 4.1 20:42:21 10° S 20:47:22 54° ESE 20:52:25 10° NNE
Terra 2.8 20:44:22 13° SE 20:48:05 34° ENE 20:52:22 10° N
Spot 2 Rocket 3.6 20:44:10 10° SSE 20:49:12 80° WSW 20:54:18 10° NNW
Cosmos 2151 Rocket 4.2 20:45:03 10° NNW 20:49:31 59° W 20:53:58 10° S
Abrixas rocket 2.1 20:47:03 10° W 20:49:57 54° SSW 20:51:50 19° SE
SPOT 1/Viking Rocket 3.6 20:45:17 12° SSE 20:50:05 77° ENE 20:55:15 10° NNW
CARTOSAT-1 3.9 20:47:49 15° SE 20:51:14 51° ENE 20:55:27 10° N
STARLINK-1106 3.6 20:47:15 10° WNW 20:51:25 83° NNE 20:54:56 14° ESE
NOSS 8 (H) 4.0 20:48:27 10° SSW 20:51:37 72° SE 20:54:40 10° NE
STARLINK-1138 4.3 20:48:03 10° WSW 20:52:09 59° NNW 20:56:16 10° ENE
STARLINK-1112 3.6 20:52:13 10° WNW 20:56:23 88° NNE 20:59:41 16° ESE
STARLINK-1143 4.4 20:53:02 10° W 20:57:08 56° NNW 21:01:13 10° ENE
Aureole 2 4.1 20:55:34 10° NNW 20:58:43 78° WSW 21:00:36 20° SSE
STARLINK-1128 3.6 20:57:11 10° WNW 21:01:21 87° SSW 21:04:28 17° ESE
STARLINK-1241 4.5 20:58:06 10° W 21:02:10 53° NNW 21:06:14 10° ENE
Cosmos 1331 Rocket 3.9 20:59:02 10° S 21:04:08 67° ESE 21:09:18 10° NNE
deb Kosmos-1763 4.3 21:00:51 10° NNW 21:04:25 62° WSW 21:06:57 18° S
Aureole 2 Rocket 2.5 21:01:54 10° SSW 21:04:59 62° WNW 21:07:56 10° NNE
STARLINK-1113 3.6 21:02:11 10° WNW 21:06:21 82° SSW 21:09:15 19° SE
Cosmos 1733 3.9 21:03:49 10° N 21:07:26 40° ENE 21:09:32 21° SE
Cosmos 1437 Rocket 3.7 21:06:14 10° SSW 21:09:53 46° WNW 21:13:36 10° N
STARLINK-1119 3.6 21:07:11 10° WNW 21:11:20 77° SSW 21:14:04 21° SE
Cosmos 1378 3.1 21:09:41 17° S 21:12:23 66° E 21:16:04 10° NNE
Cosmos 1302 Rocket 4.4 21:10:14 15° S 21:14:18 44° ESE 21:19:20 10° NNE
ISS -1.4 21:14:09 10° WSW 21:15:45 13° SW 21:17:02 11° SSW
STARLINK-1114 3.6 21:12:09 10° WNW 21:16:17 72° SSW 21:18:49 22° SE
USA 215 4.4 21:10:16 10° E 21:16:21 42° NNE 21:22:25 10° NW
Cosmos 1242 Rocket 4.1 21:15:26 19° ESE 21:16:25 21° E 21:19:13 10° NE
Cosmos 304 Rocket 4.2 21:11:52 10° SSW 21:16:37 65° WNW 21:21:25 10° NNE
Lacrosse 5 3.7 21:15:07 10° WNW 21:18:43 20° WSW 21:22:07 11° SSW
Cosmos 1092 Rocket 4.0 21:15:31 15° S 21:20:36 64° E 21:26:42 10° NNE
STARLINK-1130 (DARKSAT) 3.6 21:17:08 10° WNW 21:21:16 67° SSW 21:23:36 24° SE
NOSS 2-2 (D) 3.0 21:17:51 10° SW 21:21:25 86° SE 21:25:26 10° NE
CENTAUR R/B 3.5 21:15:44 10° NW 21:23:32 61° NE 21:31:08 14° ESE
STARLINK-1084 3.7 21:22:08 10° WNW 21:26:14 62° SW 21:28:23 26° SE
ATLAS 3B R/B 3.9 21:20:23 10° NNW 21:26:32 35° NNE 21:32:50 10° E
SL-27 R/B 3.0 21:24:23 10° N 21:27:53 48° ENE 21:29:28 27° SE
Cosmos 1378 Rocket 4.3 21:23:36 10° SSW 21:27:54 52° WNW 21:32:12 10° N
NOSS 3-2 (C) 4.2 21:21:27 10° NW 21:28:51 68° NE 21:35:36 17° SE
Cosmos 1766 3.3 21:26:29 10° N 21:30:29 84° W 21:32:47 25° S
STARLINK-1098 3.8 21:27:07 10° WNW 21:31:12 57° SW 21:33:10 28° SSE
Cosmos 1726 4.4 21:29:32 10° NE 21:31:20 13° ENE 21:32:50 11° E
STARLINK-1123 3.9 21:32:06 10° WNW 21:36:09 53° SW 21:37:56 29° SSE
Cosmos 1943 Rocket 2.1 21:31:55 10° SSW 21:37:25 74° ESE 21:43:02 10° NNE
Cosmos 2297 4.4 21:32:06 10° SW 21:37:41 56° WNW 21:43:20 10° NNE
NOSS 2-2 (E) 4.0 21:35:15 10° WSW 21:38:47 53° NW 21:42:54 10° NE
NOSS 3-4 (A) 4.2 21:36:32 23° SSE 21:38:58 31° ESE 21:44:18 10° NE
NOSS 3-4 (C) 4.2 21:36:40 23° SSE 21:39:04 30° ESE 21:44:23 10° NE
STARLINK-1097 4.0 21:37:08 10° WNW 21:41:08 49° SW 21:42:45 31° SSE
Cosmos 2082 Rocket 4.2 21:38:50 10° NW 21:42:50 20° W 21:46:48 10° SW
SeaSat 1 3.6 21:39:33 10° NE 21:43:34 24° ESE 21:44:34 23° SE
STARLINK-1099 4.1 21:42:07 10° WNW 21:46:05 45° SW 21:47:31 32° SSE
Cosmos 1975 Rocket 3.0 21:44:36 23° S 21:47:21 89° ESE 21:51:48 10° N
STARLINK-1212 4.0 21:45:49 10° NW 21:48:48 41° NNE 21:50:47 18° E
STARLINK-1105 4.0 21:46:17 10° NW 21:49:17 42° NNE 21:51:13 18° E
STARLINK-1247 4.0 21:47:10 10° NW 21:50:10 42° NNE 21:52:07 19° E
STARLINK-1227 4.0 21:47:40 10° NW 21:50:39 42° NNE 21:52:32 19° E
Cosmos 292 Rocket 3.9 21:48:20 26° S 21:50:50 55° ESE 21:55:36 10° NNE
BREEZE-M DEB (TANK) 3.7 21:34:47 10° WSW 21:50:51 86° SSE 21:54:52 10° ENE
STARLINK-1104 4.2 21:47:07 10° WNW 21:51:02 42° SW 21:52:17 32° S
STARLINK-1226 3.9 21:48:31 10° NW 21:51:31 43° NNE 21:53:23 19° E
BREEZE-M DEB (TANK) 3.3 21:47:47 10° W 21:51:54 65° N 21:55:35 10° E
STARLINK-1215 3.9 21:49:24 10° NW 21:52:25 43° NNE 21:54:16 20° E
Cosmos 2369 Rocket 2.1 21:49:04 16° SSW 21:53:37 72° ESE 21:59:16 10° NNE
STARLINK-1217 3.9 21:51:13 10° NW 21:54:14 44° NNE 21:56:01 21° E
STARLINK-1229 3.9 21:52:08 10° NW 21:55:10 45° NNE 21:56:54 21° E
STARLINK-1144 4.3 21:52:08 10° WNW 21:56:00 39° SW 21:57:06 32° S
STARLINK-1270 3.8 21:53:01 10° NW 21:56:03 45° NNE 21:57:46 22° E
SPOT 5 3.9 21:53:31 18° SSW 21:57:08 45° W 22:02:18 10° NNW
STARLINK-1189 3.8 21:54:49 10° NW 21:57:51 46° NNE 21:59:29 23° E
Aureole 3 Rocket 4.4 21:52:17 10° N 21:58:31 75° E 22:03:54 24° SSE
STARLINK-1188 3.8 21:55:43 10° NW 21:58:46 46° NNE 22:00:22 23° E
ATLAS CENTAUR R/B 2.6 21:59:35 26° ESE 21:59:35 26° ESE 22:02:57 10° ENE
STARLINK-1187 3.6 21:56:49 10° NW 21:59:52 50° NNE 22:01:14 27° E
STARLINK-1103 4.4 21:57:08 10° WNW 22:00:56 36° SW 22:01:51 31° SSW
Cosmos 1340 Rocket 4.3 21:57:35 10° N 22:01:04 27° ENE 22:02:31 22° ESE
STARLINK-1191 3.7 21:58:10 10° NW 22:01:12 48° NNE 22:02:40 25° E
STARLINK-1221 3.7 21:59:07 10° NW 22:02:09 48° NNE 22:03:35 26° E
STARLINK-1222 3.7 21:59:58 10° NW 22:03:00 49° NNE 22:04:23 27° E
ERS-1 Rocket 4.2 21:59:40 15° SSW 22:03:12 34° W 22:07:47 10° NNW
STARLINK-1214 3.6 22:00:51 10° NW 22:03:54 49° NNE 22:05:16 27° E
Cosmos 1025 Rocket 3.4 22:02:58 34° SE 22:04:16 45° E 22:08:23 10° NNE
Okean 2 4.1 22:02:00 19° SSW 22:04:46 52° WNW 22:08:51 10° N
EXPRESS MD2 4.2 22:01:08 10° W 22:04:55 75° N 22:12:49 10° ENE
Thor Agena Rocket 3.9 21:59:47 10° NNE 22:04:57 50° E 22:07:12 31° SSE
Cosmos 2026 Rocket 4.1 22:00:23 19° SSW 22:05:03 82° W 22:11:28 10° N
STARLINK-1101 4.5 22:02:09 10° WNW 22:05:53 33° SW 22:06:38 31° SSW
ATLAS 2AS CENTAUR R/B 3.2 22:00:30 16° SSW 22:06:55 57° ESE 22:14:39 10° NE
Cosmos 1656 Rocket 4.0 22:04:50 29° SSE 22:07:19 48° ESE 22:12:39 10° NE
BREEZE M DEB (TANK) 2.3 22:03:49 10° W 22:07:22 64° NNW 22:08:33 23° ENE
Cosmos 1553 Rocket 4.0 22:02:01 10° N 22:08:20 76° E 22:11:43 29° SSE
BREEZE-M DEB (TANK) 4.1 21:54:57 10° WNW 22:09:18 80° SSW 22:11:56 25° ESE
Cosmos 1953 3.2 22:05:48 10° N 22:09:32 37° ENE 22:10:41 30° ESE
STARLINK-1228 3.3 22:06:17 10° WNW 22:09:47 69° NNE 22:11:08 34° E
NOSS 3-2 (A) 4.3 22:02:45 10° NW 22:10:10 60° WSW 22:15:11 25° SSE
Cosmos 1470 2.6 22:06:48 10° N 22:10:41 85° E 22:11:51 44° SSE
APEX 4.2 22:06:47 18° SSW 22:11:46 75° ESE 22:17:08 10° NNE
STARLINK-1235 3.2 22:09:01 10° WNW 22:12:14 67° NNE 22:13:12 41° E
Cosmos 968 Rocket 3.4 22:10:04 10° NNW 22:15:15 86° WSW 22:17:31 34° SSE
Cosmos 1455 Rocket 3.6 22:13:19 10° NNW 22:17:33 51° W 22:19:25 29° SSW
Cosmos 1655 Rocket 4.2 22:15:02 29° SSE 22:18:08 59° E 22:24:17 10° NNE
SL-4 R/B 3.2 22:20:18 15° NE 22:20:18 15° NE 22:21:10 10° NNE
ATLAS 5 CENTAUR R/B 1.9 22:21:46 46° SE 22:21:48 47° SE 22:24:12 10° ENE
USA 238 DEB 4.3 22:15:01 10° NW 22:21:57 50° WSW 22:25:51 27° S
USA 238 4.3 22:15:07 10° NW 22:22:03 50° WSW 22:25:58 27° S
Cosmos 1758 3.3 22:20:07 10° NNW 22:24:11 79° W 22:25:25 44° S
Terra 3.1 22:23:15 19° SW 22:25:50 31° W 22:30:04 10° NNW
SL-4 R/B 2.3 22:21:05 10° SW 22:25:52 72° SSE 22:30:42 10° ENE
Cosmos 1842 4.5 22:24:08 20° SW 22:26:20 37° WNW 22:30:00 10° N
STARLINK-1234 2.8 22:26:46 10° WNW 22:30:02 88° SW 22:30:16 76° SE
In-Cosmos 22 4.4 22:30:04 34° SSE 22:31:57 50° E 22:37:03 10° NNE
STARLINK-1233 4.5 22:31:21 10° WNW 22:35:24 49° NNE 22:39:11 11° E
Cosmos 1503 Rocket 4.0 22:30:05 10° NNW 22:35:25 81° WSW 22:37:35 37° SSE
STARLINK-1209 2.8 22:32:56 10° WNW 22:36:13 76° SW 22:36:13 76° SW
Cosmos 2266 Rocket 4.1 22:33:43 32° SSE 22:36:25 59° E 22:42:19 10° NNE
STARLINK-1204 4.4 22:36:20 10° WNW 22:40:24 51° NNE 22:43:59 13° E
Meteor 2-8 Rocket 4.4 22:35:00 10° N 22:41:10 83° W 22:44:07 33° S
SJ 16-02 4.2 22:42:10 10° NE 22:42:50 10° NE 22:43:30 10° NE
Cosmos 2263 4.4 22:39:18 18° SW 22:43:33 68° WNW 22:49:10 10° NNE
STARLINK-1238 4.3 22:41:21 10° WNW 22:45:25 53° NNE 22:48:47 14° E
Cosmos 1536 Rocket 3.6 22:45:43 40° SSW 22:47:12 73° W 22:51:35 10° N
Cosmos 1674 3.4 22:48:20 37° ESE 22:48:35 38° E 22:52:07 10° NNE
STARLINK-1201 4.2 22:46:19 10° WNW 22:50:25 55° NNE 22:53:33 16° E
Cosmos 1271 Rocket 3.6 22:49:29 30° SW 22:50:56 44° WNW 22:54:44 10° N
Cosmos 1242 Rocket 4.2 22:49:25 20° WSW 22:51:07 29° WNW 22:54:23 10° N
STARLINK-60 3.5 22:52:21 17° W 22:54:36 57° NNW 22:57:45 10° ENE
Cosmos 1354 Rocket 4.2 22:49:27 10° NNW 22:54:43 63° WSW 22:56:35 39° S
Spot 4 4.1 22:53:29 39° SSW 22:55:09 61° W 22:59:58 10° NNW
STARLINK-1206 4.2 22:51:19 10° WNW 22:55:25 58° NNE 22:58:21 18° E
COSMOS 2455 2.8 22:52:50 32° SSW 22:55:43 72° ESE 23:01:44 10° NE
Cosmos 883 Rocket 4.4 22:50:04 10° N 22:56:14 79° E 22:58:57 35° SSE
USA 215 3.3 22:52:56 13° ESE 22:58:56 78° NNE 23:05:29 10° NW
STARLINK-1205 4.1 22:56:17 10° WNW 23:00:24 61° NNE 23:03:07 20° E
Cosmos 1707 3.6 22:59:44 31° WSW 23:00:58 42° WNW 23:04:43 10° N
Cosmos 2297 Rocket 3.9 22:57:04 10° N 23:01:53 28° NE 23:06:40 10° ESE
Helios 1A 3.6 23:01:35 36° ESE 23:02:48 47° ENE 23:06:50 10° N
Lacrosse 4 Rocket 4.4 23:03:17 10° N 23:05:06 12° NNE 23:06:52 10° ENE
STARLINK-1218 4.0 23:01:17 10° WNW 23:05:25 64° NNE 23:07:55 22° E
Cosmos 1174 3.3 23:06:36 76° WSW 23:06:49 83° NW 23:10:35 10° NE
Cosmos 1726 2.4 23:03:15 10° NNW 23:06:53 52° W 23:07:20 49° WSW
ALOS 2 2.5 23:07:47 51° S 23:08:53 84° WSW 23:13:18 10° NNW
Timation 2 Rocket 4.1 23:03:15 10° NNW 23:09:35 68° ENE 23:12:54 28° SE
STARLINK-1254 3.9 23:06:15 10° WNW 23:10:23 67° NNE 23:12:41 25° ESE
Cosmos 2058 Rocket 4.1 23:06:24 10° N 23:10:33 37° ENE 23:11:58 29° ESE
COSMOS 2487 2.7 23:07:12 10° NNW 23:10:32 52° WSW 23:10:32 52° WSW
CENTAUR R/B 3.7 23:06:39 10° NW 23:14:20 46° WSW 23:18:17 29° S
STARLINK-1231 3.8 23:11:13 10° WNW 23:15:22 71° NNE 23:17:27 28° ESE
Meteor 1-16 Rocket 4.3 23:10:27 10° NNW 23:15:53 63° W 23:17:49 38° SSW
Meteor 2-5 Rocket 4.0 23:14:12 37° SSE 23:16:06 54° E 23:21:35 10° NNE
Cosmos 1867 4.1 23:12:15 10° NW 23:17:26 44° WSW 23:18:45 37° SSW
ATLAS 3B R/B 2.7 23:11:00 10° NW 23:17:47 73° SW 23:21:09 33° SSE
SL-14 R/B 4.3 23:19:11 30° ESE 23:19:30 31° E 23:22:55 10° NNE
FALCON 9 DEB 3.3 23:20:07 60° E 23:20:07 60° E 23:23:02 10° ENE
STARLINK-1232 3.7 23:16:13 10° WNW 23:20:22 75° NNE 23:22:15 31° ESE
Cosmos 1606 Rocket 3.4 23:16:19 10° N 23:20:40 88° ENE 23:21:36 55° S
SeaSat 1 3.0 23:16:31 10° NNE 23:21:20 55° NW 23:24:20 22° SW
Cosmos 1943 Rocket 4.3 23:17:24 10° W 23:21:48 23° NW 23:26:14 10° N
Cosmos 2098 Rocket 4.3 23:20:08 33° S 23:23:44 88° E 23:31:17 10° N
STARLINK-29 3.3 23:24:02 54° WNW 23:24:29 62° NNW 23:27:40 10° ENE
STARLINK-1208 3.6 23:21:10 10° WNW 23:25:20 80° NNE 23:27:00 35° ESE
STARLINK-1362 4.4 23:26:40 33° E 23:26:40 33° E 23:29:12 10° ENE
ATLAS CENTAUR R/B 3.0 23:25:55 10° NNW 23:27:52 26° NE 23:31:01 10° E
STARLINK-1373 4.2 23:30:05 37° E 23:30:05 37° E 23:32:48 10° ENE
NOSS 3-4 (A) 3.9 23:23:53 12° WSW 23:29:25 59° NW 23:35:48 10° NE
NOSS 3-4 (C) 3.9 23:24:02 12° WSW 23:29:32 60° NW 23:35:55 10° NE
STARLINK-1271 3.6 23:26:11 10° WNW 23:30:20 84° NNE 23:31:49 39° ESE
STARLINK-1365 4.1 23:31:11 40° ESE 23:31:11 40° ESE 23:34:05 10° ENE
RESURS DK-1 2.2 23:29:48 62° S 23:30:22 74° ESE 23:34:31 10° NNE
STARLINK-1390 4.1 23:33:34 40° ESE 23:33:34 40° ESE 23:36:26 10° ENE
Cosmos 2084 3.5 23:33:36 56° S 23:34:20 67° SE 23:38:47 10° NE
Cosmos 2315 Rocket 4.1 23:28:13 10° NNW 23:34:23 68° W 23:36:59 36° SSW
STARLINK-1154 3.5 23:31:09 10° WNW 23:35:19 89° NNE 23:36:35 44° ESE
BREEZE-M R/B 3.8 23:31:44 25° SW 23:35:39 50° SSE 23:39:34 10° ENE
Cosmos 1626 2.5 23:36:00 49° ESE 23:36:13 49° E 23:39:51 10° NNE
Cosmos 1340 Rocket 4.1 23:34:00 10° NNW 23:37:29 28° W 23:38:06 27° WSW
Cosmos 2369 Rocket 4.2 23:33:40 10° W 23:38:13 24° NW 23:42:45 10° N
ATLAS CENTAUR R/B 2.4 23:35:43 21° WSW 23:38:13 44° NW 23:42:09 10° NNE
Okean 1-7 Rocket 3.7 23:37:39 49° SSE 23:38:38 63° E 23:43:08 10° NNE
Cosmos 2227 Rocket 3.2 23:33:40 10° NNW 23:39:03 41° NE 23:43:29 15° ESE
STARLINK-1197 3.5 23:36:07 10° WNW 23:40:17 86° SSW 23:41:20 49° SE
Cosmos 1908 3.7 23:38:30 10° NNW 23:42:10 45° W 23:42:29 44° WSW
Nadezhda 2 Rocket 4.4 23:39:44 38° S 23:42:16 84° E 23:48:27 10° N
CZ-4 R/B 4.4 23:38:06 10° NNE 23:42:41 45° E 23:43:50 37° SE
Aureole 3 4.5 23:42:12 10° NW 23:44:31 23° W 23:44:31 23° W
STARLINK-1198 3.4 23:41:05 10° WNW 23:45:15 81° SSW 23:46:07 54° SE
Cosmos 1953 4.2 23:42:48 10° NW 23:45:40 19° W 23:46:22 18° W
STARLINK-1199 3.4 23:46:06 10° WNW 23:50:15 75° SSW 23:50:55 59° SSE
Landsat 4 3.5 23:46:52 10° NNE 23:50:35 81° WNW 23:51:00 68° SW
STARLINK-1210 3.5 23:51:04 10° WNW 23:55:13 70° SSW 23:55:41 62° SSE
